Weather History for Rawlins, WY

Change the Weather History Date:

Sunday, January 6, 2013

  Actual Average Record
Temperature  
Mean Temperature 16 °F 22 °F  
Max Temperature 37 °F 31 °F 50 °F (1954)
Min Temperature -5 °F 12 °F -34 °F (1979)
Degree Days  
Heating Degree Days 49 43  
Month to date heating degree days 340 258  
Since 1 July heating degree days 2960 3712  
Cooling Degree Days 0 0  
Month to date cooling degree days 0 0  
Year to date cooling degree days 0 0  
Moisture  
Dew Point 1 °F    
Average Humidity 56    
Maximum Humidity 82    
Minimum Humidity 29    
Precipitation  
Precipitation 0.00 in 0.01 in 0.18 in (1987)
Month to date precipitation T 0.08  
Year to date precipitation T 0.08  
Sea Level Pressure  
Sea Level Pressure 30.27 in    
Wind  
Wind Speed 8 mph (West)    
Max Wind Speed 26 mph    
Max Gust Speed 32 mph    
Visibility 10 miles    
Events      
T = Trace of Precipitation, MM = Missing Value Source: NWS Daily Summary

Daily Weather History Graph

Daily Weather History Graph

Search for Another Location

Airport:

Trip Planner

Search our weather history database for the weather conditions in past years. The results will help you decide how hot, cold, wet, or windy it might be!

Date:

Astronomy

Jan. 06, 2013 Rise Set
Actual Time 7:36 AM MST 4:53 PM MST
Civil Twilight 7:04 AM MST 5:24 PM MST
Nautical Twilight 6:30 AM MST 5:59 PM MST
Astronomical Twilight 5:56 AM MST 6:33 PM MST
Moon 1:52 AM MST (1/6) 12:24 PM MST (1/6)
Length of Visible Light 10h 19m
Length of Day
9h 17m
Waning Crescent, 32% of the Moon is Illuminated
Jan 6
Waning Crescent
Jan 11
New
Jan 18
First Quarter
Jan 26
Full
Feb 3
Last Quarter

Hourly Weather History & Observations

Time (MST) Temp. Windchill Dew Point Humidity Pressure Visibility Wind Dir Wind Speed Gust Speed Precip Events Conditions
12:53 AM -2.0 °F -10.1 °F -7.1 °F 79% 30.51 in 10.0 mi NNW 3.5 mph - N/A   Clear
1:53 AM -5.1 °F -13.6 °F -9.9 °F 80% 30.51 in 10.0 mi NNW 3.5 mph - N/A   Clear
2:53 AM -2.0 °F -16.6 °F -8.0 °F 76% 30.48 in 10.0 mi North 8.1 mph - N/A   Clear
3:53 AM -0.9 °F -15.3 °F -8.0 °F 72% 30.45 in 10.0 mi NW 8.1 mph - N/A   Clear
4:53 AM -0.0 °F -9.9 °F -6.0 °F 76% 30.47 in 10.0 mi NW 4.6 mph - N/A   Clear
5:53 AM -2.9 °F - -8.0 °F 79% 30.48 in 10.0 mi Calm Calm - N/A   Clear
6:53 AM -2.0 °F - -8.0 °F 76% 30.06 in 10.0 mi Calm Calm - N/A   Clear
7:53 AM -0.0 °F - -6.0 °F 76% 30.05 in 10.0 mi Calm Calm - N/A   Clear
8:53 AM 9.0 °F - 1.0 °F 70% 30.46 in 10.0 mi Calm Calm - N/A   Clear
9:53 AM 21.9 °F - 1.9 °F 42% 30.41 in 10.0 mi Calm Calm - N/A   Clear
10:53 AM 23.0 °F 14.7 °F 7.0 °F 50% 30.37 in 10.0 mi NNE 6.9 mph - N/A   Clear
11:53 AM 27.0 °F 20.5 °F 8.1 °F 45% 30.31 in 10.0 mi North 5.8 mph - N/A   Clear
12:53 PM 35.1 °F 23.3 °F 6.1 °F 30% 30.23 in 10.0 mi SW 23.0 mph 28.8 mph N/A   Clear
1:53 PM 36.0 °F 27.5 °F 10.0 °F 34% 30.22 in 10.0 mi SW 12.7 mph 18.4 mph N/A   Clear
2:53 PM 33.1 °F 21.5 °F 9.0 °F 37% 30.19 in 10.0 mi SSW 19.6 mph 26.5 mph N/A   Clear
3:53 PM 30.0 °F 17.9 °F 7.0 °F 38% 30.19 in 10.0 mi SW 18.4 mph - N/A   Clear
4:53 PM 26.1 °F 16.2 °F 7.0 °F 44% 30.22 in 10.0 mi SW 10.4 mph - N/A   Clear
5:53 PM 24.1 °F - 5.0 °F 44% 30.22 in 10.0 mi Calm Calm - N/A   Clear
6:53 PM 24.1 °F 18.2 °F 5.0 °F 44% 30.24 in 10.0 mi East 4.6 mph - N/A   Clear
7:53 PM 21.9 °F 12.5 °F 5.0 °F 48% 30.22 in 10.0 mi South 8.1 mph - N/A   Clear
8:53 PM 25.0 °F 9.9 °F 6.1 °F 45% 30.13 in 10.0 mi SW 23.0 mph - N/A   Clear
9:53 PM 21.9 °F 15.7 °F 3.9 °F 46% 30.10 in 10.0 mi Variable 4.6 mph - N/A   Clear
10:46 PM 26.6 °F 13.4 °F 5.0 °F 40% 29.98 in 10.0 mi WSW 18.4 mph 24.2 mph N/A   Clear
10:53 PM 26.1 °F 12.3 °F 5.0 °F 41% 30.06 in 10.0 mi WSW 19.6 mph 24.2 mph N/A   Clear
11:53 PM 25.0 °F 12.6 °F 5.0 °F 43% 30.07 in 10.0 mi WSW 15.0 mph - N/A   Clear